N7LK Weather Reports


time (UTC)temp
F
wind
direction
speed
knots
gust
knots
rain 1hr
in
rain 24hr
in
rain mn
in
humidity
%
barometer
mb
20260504050334 82 225 1.7 13.0 0.00 0.00 0.00 24 1007.9
20260504045333 82 257 5.2 13.0 0.00 0.00 0.00 23 1007.9
20260504044330 82 242 4.3 11.3 0.00 0.00 0.00 23 1007.8
20260504043348 83 236 3.5 12.2 0.00 0.00 0.00 22 1007.8
20260504042326 83 235 2.6 11.3 0.00 0.00 0.00 21 1007.8
20260504041330 83 238 6.1 13.9 0.00 0.00 0.00 20 1007.5
20260504040330 84 213 6.1 10.4 0.00 0.00 0.00 19 1007.2
20260504035330 84 246 5.2 10.4 0.00 0.00 0.00 18 1007.2
20260504034327 84 212 4.3 9.6 0.00 0.00 0.00 17 1006.7
20260504033330 85 236 1.7 7.0 0.00 0.00 0.00 17 1006.4
20260504032346 85 213 0.9 7.0 0.00 0.00 0.00 17 1006.2
20260504031345 86 251 4.3 7.0 0.00 0.00 0.00 17 1006.0
20260504030342 86 237 5.2 10.4 0.00 0.00 0.00 17 1005.8
20260504025403 87 264 3.5 12.2 0.00 0.00 0.00 16 1005.5
20260504024344 87 223 4.3 12.2 0.00 0.00 0.00 15 1005.2
20260504023341 87 281 6.1 12.2 0.00 0.00 0.00 14 1004.9
20260504022337 88 227 4.3 8.7 0.00 0.00 0.00 15 1004.9
20260504021336 88 260 4.3 16.5 0.00 0.00 0.00 15 1004.7
20260504020356 89 223 6.1 14.8 0.00 0.00 0.00 15 1004.7
20260504015337 89 209 3.5 13.0 0.00 0.00 0.00 15 1004.1
20260504014334 90 268 4.3 13.0 0.00 0.00 0.00 15 1004.1
20260504013333 90 237 6.1 14.8 0.00 0.00 0.00 16 1004.1
20260504012332 91 316 6.1 13.0 0.00 0.00 0.00 15 1004.0
20260504011331 92 263 4.3 15.6 0.00 0.00 0.00 15 1004.2
20260504010333 92 248 1.7 14.8 0.00 0.00 0.00 14 1004.1
20260504005332 93 241 6.1 16.5 0.00 0.00 0.00 14 1004.0
20260504004332 93 252 6.1 15.6 0.00 0.00 0.00 14 1004.1
20260504003332 94 261 3.5 12.2 0.00 0.00 0.00 14 1004.1
20260504002337 94 216 5.2 15.6 0.00 0.00 0.00 13 1004.0
20260504001336 94 307 7.0 17.4 0.00 0.00 0.00 13 1004.0
20260504000337 95 206 7.0 13.9 0.00 0.00 0.00 13 1004.0
20260503235356 97 231 5.2 14.8 0.00 0.00 0.00 12 1004.0
20260503234334 97 268 5.2 13.0 0.00 0.00 0.00 12 1003.8
20260503233358 96 200 2.6 13.9 0.00 0.00 0.00 12 1003.8
20260503232355 96 281 4.3 14.8 0.00 0.00 0.00 12 1003.8
20260503231331 97 301 0.9 10.4 0.00 0.00 0.00 13 1004.1
20260503230330 97 243 3.5 10.4 0.00 0.00 0.00 12 1004.1
20260503225345 97 265 6.1 11.3 0.00 0.00 0.00 12 1004.4
20260503224328 98 264 2.6 7.8 0.00 0.00 0.00 12 1004.5
20260503223345 97 242 2.6 7.8 0.00 0.00 0.00 12 1004.6
20260503222344 97 196 3.5 8.7 0.00 0.00 0.00 13 1004.8
20260503221343 97 191 0.0 11.3 0.00 0.00 0.00 13 1005.0
20260503220402 96 164 5.2 14.8 0.00 0.00 0.00 13 1005.3
20260503215341 97 202 3.5 11.3 0.00 0.00 0.00 13 1005.4
20260503214327 96 171 0.9 8.7 0.00 0.00 0.00 13 1005.6
20260503213346 95 38 0.0 7.8 0.00 0.00 0.00 15 1005.8
20260503212405 95 137 3.5 10.4 0.00 0.00 0.00 14 1006.0
20260503211341 95 178 5.2 13.0 0.00 0.00 0.00 15 1006.3
20260503210343 95 128 7.0 15.6 0.00 0.00 0.00 14 1006.5
20260503205341 95 207 6.1 13.0 0.00 0.00 0.00 15 1006.5
20260503204400 94 180 0.9 13.0 0.00 0.00 0.00 16 1006.7
20260503203337 94 171 5.2 13.9 0.00 0.00 0.00 16 1006.9
20260503202333 95 196 6.1 12.2 0.00 0.00 0.00 16 1006.9
20260503201335 94 162 2.6 9.6 0.00 0.00 0.00 17 1007.0
20260503200355 94 186 0.0 6.1 0.00 0.00 0.00 17 1007.3
20260503195333 93 109 3.5 14.8 0.00 0.00 0.00 17 1007.5
20260503194333 93 165 7.0 11.3 0.00 0.00 0.00 17 1007.6
20260503193332 93 176 5.2 12.2 0.00 0.00 0.00 19 1007.7
20260503192335 93 114 2.6 13.9 0.00 0.00 0.00 21 1007.9
20260503191332 93 181 1.7 8.7 0.00 0.00 0.00 21 1008.1
20260503190351 92 124 5.2 8.7 0.00 0.00 0.00 20 1008.3
20260503185328 91 180 3.5 10.4 0.00 0.00 0.00 21 1008.4
20260503184349 91 171 5.2 12.2 0.00 0.00 0.00 21 1008.7
20260503183331 90 178 4.3 8.7 0.00 0.00 0.00 21 1008.8
20260503182331 90 155 3.5 9.6 0.00 0.00 0.00 23 1008.9
20260503181329 89 164 2.6 8.7 0.00 0.00 0.00 23 1009.1
20260503180329 88 161 3.5 7.8 0.00 0.00 0.00 24 1009.3
20260503175328 88 165 0.0 7.8 0.00 0.00 0.00 24 1009.5
20260503174332 88 179 6.1 12.2 0.00 0.00 0.00 24 1009.6
20260503173332 87 146 1.7 7.8 0.00 0.00 0.00 24 1009.6
20260503172333 87 186 1.7 10.4 0.00 0.00 0.00 25 1009.6
20260503171330 87 54 0.0 8.7 0.00 0.00 0.00 25 1009.7
20260503170332 86 112 4.3 9.6 0.00 0.00 0.00 25 1009.7
20260503150339 80 64 0.9 9.6 0.00 0.00 0.00 31 1009.7
20260503131326 76 65 0.9 4.3 0.00 0.00 0.00 32 1008.9
20260503130329 77 124 0.9 5.2 0.00 0.00 0.00 32 1008.8
20260503110340 78 75 0.9 4.3 0.00 0.00 0.00 29 1008.5
20260503090338 78 69 0.9 3.5 0.00 0.00 0.00 24 1008.5
20260503081335 78 67 0.0 0.0 0.00 0.00 0.00 24 1008.8
20260503080333 78 67 0.0 0.0 0.00 0.00 0.00 24 1008.8
20260503072334 79 67 0.0 0.0 0.00 0.00 0.00 23 1009.0
20260503071333 79 95 0.0 0.9 0.00 0.00 0.00 23 1009.0
20260503070350 79 116 0.0 0.0 0.00 0.00 0.00 23 1009.1